SCP
-0 0 0 0 0 -0 -0 -0 -0 -0 -0 -0 -0 -0 0 -0 0 0 0 0 0 0 0 0 0 0 0 0 0 0 0 0 0 0 0 0 0 0 0 0 0 0 0 1 2
0 0 0 0 0 0 -0 -0 -0 -0 -0 -0 0 0 0 -0 -0 0 0 0 0 0 0 0 0 0 0 0 0 0 0 0 0 0 0 0 0 0 0 0 0 0 0 2 3
0 0 0 0 0 0 0 0 0 0 0 0 0 -0 -0 -0 -0 -0 0 0 0 0 0 0 0 0 0 0 0 0 0 0 0 0 0 0 0 0 0 0 0 0 0 0 3
0 0 0 0 0 0 0 0 0 0 0 0 0 0 0 -0 0 0 0 0 0 0 0 0 0 0 0 0 0 0 0 0 0 0 0 0 0 0 0 0 0 0 0 0 2
0 0 0 0 0 0 0 0 0 0 0 0 0 0 0 0 0 0 0 0 0 0 0 0 0 0 0 0 0 0 0 0 0 0 0 0 0 0 0 0 0 0 0 0 0
-0 -0 -0 0 0 0 0 0 0 0 0 0 0 0 0 0 0 0 0 0 0 0 0 0 0 0 0 0 0 0 0 0 0 0 0 0 0 0 -0 0 0 0 0 0 0
0 0 0 0 0 0 0 0 0 0 0 0 0 0 0 0 0 0 0 0 0 0 0 0 0 0 0 0 0 0 0 0 0 0 0 0 0 -0 0 0 0 0 0 0 0
-0 -0 0 0 0 0 0 0 0 0 0 0 0 0 0 0 0 0 0 0 0 0 0 0 0 0 0 0 0 0 0 0 0 0 0 0 0 0 0 0 0 0 0 0 0
-0 -0 0 0 0 0 0 -0 0 0 0 0 0 0 0 0 0 0 0 0 0 0 0 0 0 0 0 0 0 0 0 0 0 0 0 0 0 -0 0 0 0 0 0 0 0
-0 -0 -0 -0 -0 0 -0 -0 -0 0 0 0 0 0 0 0 0 0 0 0 0 0 0 0 0 0 0 0 0 0 0 0 0 0 0 0 0 0 0 0 0 0 0 0 0
-0 -0 -0 -0 -0 0 0 -0 0 0 0 0 0 0 0 0 0 0 0 0 0 0 0 0 0 0 0 0 0 0 0 0 0 0 0 0 0 0 0 0 0 0 0 0 0
0 0 0 0 0 0 -0 0 0 0 0 0 -0 0 0 0 0 0 0 0 0 0 0 0 0 0 0 0 0 0 0 0 0 0 0 0 0 0 0 0 0 0 0 0 0
0 0 0 0 0 0 0 0 0 0 0 0 0 0 0 0 0 0 0 0 0 0 0 0 0 0 0 0 0 0 0 0 0 0 0 0 0 0 0 0 0 0 0 0 0
0 0 0 0 0 0 0 0 0 0 0 0 0 0 0 0 0 0 0 0 0 0 0 0 0 0 0 0 0 0 0 0 0 0 0 0 0 0 0 0 0 0 0 0 0
0 0 0 0 0 0 0 0 0 0 0 0 0 0 -0 0 0 0 0 0 0 0 0 0 0 0 0 0 0 0 0 0 0 0 0 0 0 0 0 0 0 0 0 0 0
0 0 0 0 0 0 0 0 0 0 0 0 0 0 0 0 0 0 0 0 0 0 0 0 0 0 0 0 0 0 0 0 0 0 0 0 0 0 0 0 0 0 0 0 0
0 0 0 0 0 0 0 0 0 0 0 0 0 0 0 -0 0 0 0 0 0 0 0 0 0 0 0 0 0 0 0 0 0 0 0 0 0 0 0 0 0 0 0 0 0
0 0 0 0 0 0 0 0 0 0 0 0 0 -0 0 0 0 0 0 -0 -0 -0 0 0 0 0 0 0 0 0 0 0 0 0 0 0 0 0 0 0 0 0 0 0 0
0 0 0 0 0 0 0 0 0 0 -0 -0 0 -0 0 0 0 0 0 -0 -0 -0 0 0 0 0 0 0 0 0 0 0 0 0 0 0 0 0 0 0 0 0 0 0 0
0 0 0 0 0 0 0 0 0 0 0 -0 0 0 0 0 0 0 0 -0 0 0 0 -0 0 0 0 0 0 0 0 0 0 0 0 0 0 0 0 0 0 0 0 0 0
0 0 0 0 0 0 0 -0 -0 -0 -0 0 -0 0 0 0 0 0 -0 -0 0 0 -0 -0 0 0 0 0 0 0 0 0 0 0 0 0 0 0 0 0 0 0 0 0 0
0 0 0 0 0 0 0 -0 -0 -0 -0 0 -0 0 0 0 0 0 -0 -0 0 0 -0 -0 -0 -0 0 0 0 0 0 0 0 0 0 0 0 0 0 0 0 0 0 0 0
0 0 0 0 0 0 -0 -0 0 -0 -0 0 0 -0 -0 0 0 0 0 -0 -0 0 -0 -0 -0 -0 0 0 0 0 0 0 0 0 0 0 0 0 0 0 0 0 0 0 0
0 0 0 0 0 0 -0 0 -0 -0 -0 -0 0 -0 0 0 0 -0 0 -0 -0 0 0 -0 -0 -0 0 0 0 0 0 0 0 0 0 0 0 0 0 0 0 0 0 0 0
0 0 0 0 0 -0 -0 0 -0 -0 0 -0 -0 0 -0 0 -0 -0 -0 0 -0 0 0 -0 -0 0 0 0 0 0 0 0 0 0 0 0 0 0 0 0 0 0 0 0 0
0 0 0 0 0 -0 -0 0 -0 -0 -0 -0 0 -0 -0 0 -0 -0 -0 -0 0 0 0 -0 0 0 0 0 0 0 0 0 0 0 0 0 0 0 0 0 0 0 0 0 0
0 0 0 0 0 -0 -0 -0 -0 -0 0 -0 -0 -0 0 -0 -0 0 0 0 0 0 0 0 0 0 0 0 0 0 0 0 0 0 0 0 0 0 0 0 0 0 0 -0 0
Wind_Speed_500mb
43 44 44 44 43 43 44 43 42 42 42 41 40 42 47 50 51 53 66 49 54 35 41 27 26 30 37 21 20 17 5 9 15 16 14 4 4 6 2 14 35 12 24 23 29
49 47 46 46 47 48 47 46 47 46 46 43 44 45 47 47 53 68 50 26 18 33 53 56 27 33 23 19 19 11 9 23 15 12 12 9 2 5 9 23 17 26 7 17 43
52 52 52 51 50 49 47 46 46 47 47 46 44 41 40 39 54 10 8 6 9 18 48 54 40 38 16 19 23 15 12 12 14 31 35 9 14 12 1 12 16 16 10 30 43
51 55 57 59 59 59 56 54 52 52 49 48 50 40 34 31 15 9 15 16 6 17 43 47 56 28 14 15 22 8 18 15 21 27 14 9 10 6 23 36 26 34 23 14 30
55 56 57 58 60 60 60 62 62 61 56 51 50 44 32 22 59 47 33 40 33 18 41 60 60 44 18 15 16 9 8 27 52 34 40 35 18 20 22 48 47 47 41 27 38
60 62 63 63 63 63 61 60 60 63 63 60 56 36 31 34 46 7 18 31 50 56 37 58 41 52 23 13 16 13 38 40 26 30 27 16 29 23 9 35 45 42 40 26 31
61 63 64 65 67 69 70 69 65 66 66 60 55 41 46 92 54 43 43 30 27 38 48 47 46 50 25 4 54 24 6 10 16 31 17 11 41 29 52 54 56 50 45 43 39
63 65 66 68 69 72 73 72 68 71 69 65 60 33 41 52 50 77 62 77 47 42 51 43 63 42 19 11 1 10 10 25 14 21 17 33 35 5 42 45 47 47 46 43 41
68 69 71 72 71 75 81 78 73 71 63 44 28 30 30 30 36 21 29 56 55 75 54 41 39 27 15 9 5 10 9 10 4 21 14 24 5 18 47 31 37 44 46 46 47
68 71 74 76 76 76 85 79 32 25 14 6 7 14 29 32 29 17 11 16 8 30 46 39 25 12 16 20 32 16 10 8 13 18 25 19 16 15 16 27 43 51 49 54 53
75 78 80 83 86 90 74 66 25 8 6 15 20 38 44 52 34 30 16 8 22 23 24 28 23 45 54 47 19 17 14 25 12 14 13 30 24 15 26 19 28 39 48 54 60
81 84 86 85 89 74 53 56 32 21 36 40 60 93 104 76 51 61 25 27 24 21 30 15 54 53 25 34 36 31 10 13 6 8 11 9 17 16 17 13 31 48 57 61 58
82 85 87 91 92 40 67 25 5 26 14 35 45 43 46 30 39 68 55 51 18 20 47 50 17 36 35 36 41 42 40 10 9 5 3 2 13 10 13 12 30 45 50 56 58
81 85 89 96 59 61 40 15 27 23 9 16 10 11 12 21 14 41 28 42 17 32 30 40 54 39 41 47 38 40 33 19 9 6 7 10 11 11 12 16 12 36 49 59 57
81 82 89 70 49 41 34 27 21 5 11 7 8 9 5 13 29 7 13 43 27 48 23 25 38 33 45 40 39 17 35 35 12 8 4 6 2 14 7 11 17 12 17 36 36
81 80 66 37 39 41 28 19 5 4 16 10 5 11 10 19 21 10 11 14 24 29 35 46 26 43 34 39 38 18 25 15 8 9 6 17 15 10 11 13 6 5 16 18 28
80 77 24 39 52 38 13 7 3 8 12 9 13 14 27 26 14 8 5 3 1 10 32 35 48 30 29 23 33 23 23 7 6 7 13 21 13 14 12 11 14 18 30 31 33
81 65 15 40 46 24 7 2 11 9 12 24 18 34 21 11 9 6 6 8 18 15 11 26 31 42 29 25 19 43 23 11 12 13 9 9 12 11 33 7 7 29 27 34 37
82 46 33 40 32 16 7 5 8 7 16 22 28 23 6 3 11 7 10 14 18 22 14 14 18 19 40 11 42 25 22 18 13 4 9 10 6 5 10 16 18 32 38 33 43
83 46 33 51 37 12 5 11 7 15 25 20 7 10 9 6 8 9 6 10 9 16 7 10 9 19 40 25 36 36 34 14 4 13 11 6 13 9 9 15 24 28 35 41 50
53 27 30 57 26 8 6 9 28 37 45 9 10 18 15 11 14 6 10 25 12 10 11 8 4 7 24 32 30 16 29 9 10 9 10 9 10 5 5 16 32 29 37 51 63
30 10 35 53 11 12 10 29 42 29 32 22 17 10 9 5 11 7 10 10 12 10 12 13 6 9 22 10 34 27 34 11 22 11 4 8 8 6 4 10 21 37 47 55 69
44 14 24 33 9 12 14 31 29 12 30 12 13 9 14 8 9 9 8 15 33 17 8 12 2 4 9 8 6 34 33 17 13 9 13 10 8 4 9 17 33 47 57 62 69
21 9 16 17 30 11 26 19 25 35 26 29 11 18 13 8 8 12 15 12 38 9 12 11 8 10 13 4 13 35 18 38 14 8 12 14 14 13 16 26 34 53 59 61 63
16 7 7 10 20 28 24 15 36 23 12 23 7 17 27 11 14 8 6 19 17 12 4 3 5 14 19 14 29 31 36 24 33 21 10 17 22 33 34 36 40 64 67 69 67
15 15 12 29 26 25 18 10 30 38 20 21 18 44 40 20 18 37 28 9 10 17 7 1 5 5 5 11 36 25 26 19 13 16 9 25 6 15 24 35 48 58 68 64 65
26 25 20 19 12 18 12 30 44 40 26 35 40 41 33 31 27 38 47 31 30 18 7 7 2 4 5 15 29 18 28 26 10 9 18 14 14 24 29 30 45 56 61 64 73
Wind_Direction_500mb
350 346 342 337 333 331 330 328 327 323 318 316 314 311 310 308 308 298 286 297 278 257 234 227 228 212 187 191 198 180 122 196 200 164 236 245 201 199 315 296 327 317 262 254 216
348 345 342 340 338 335 331 327 325 322 319 316 313 311 309 310 310 297 295 259 268 227 216 209 197 174 181 194 193 174 179 203 203 202 219 206 212 319 340 331 321 28 58 197 185
344 342 338 336 334 331 328 326 322 321 319 317 312 310 313 317 316 274 175 178 263 230 209 214 206 191 195 193 187 203 207 178 223 223 241 219 263 236 101 303 256 4 30 165 169
341 337 335 333 331 329 327 323 320 317 312 310 313 311 312 306 288 234 224 226 258 215 193 193 202 187 196 199 205 206 211 182 225 217 222 195 245 179 211 241 261 305 321 237 193
340 337 334 331 328 325 323 321 319 315 312 311 308 306 308 269 254 267 244 243 239 225 203 196 186 192 178 186 201 218 210 223 231 232 243 255 241 246 238 264 274 283 290 257 213
339 337 335 332 328 324 320 316 312 308 306 306 305 300 277 262 293 255 231 242 237 235 208 197 207 199 199 192 175 211 199 225 230 231 231 239 260 227 238 259 272 273 280 242 209
343 340 337 334 331 328 324 319 314 308 302 296 293 285 259 249 266 268 274 230 217 212 213 222 203 188 198 202 235 228 272 264 218 237 248 269 272 240 246 251 261 267 265 269 226
345 342 339 335 332 329 323 318 314 308 298 291 285 257 252 271 276 267 252 244 220 211 215 213 208 206 187 213 250 183 180 237 184 179 233 173 244 329 226 226 241 253 256 258 230
344 341 338 334 332 330 324 318 316 302 295 286 247 220 265 275 266 291 259 243 247 230 223 209 206 209 187 125 357 236 202 193 184 190 171 187 76 235 239 239 239 250 251 246 244
342 340 339 339 338 336 327 328 338 309 4 103 157 207 257 253 265 305 290 242 205 211 209 203 197 188 200 179 213 191 185 194 179 213 197 218 223 315 268 234 240 241 242 246 244
346 343 341 340 338 339 334 356 358 305 296 254 235 233 258 273 271 259 249 222 208 179 196 182 192 210 200 206 209 183 177 199 198 208 157 228 251 211 254 214 236 247 243 246 251
347 345 343 340 337 338 335 341 331 296 297 264 264 260 260 261 278 260 202 222 178 190 181 186 220 208 186 200 212 228 209 212 249 180 161 240 254 227 244 209 221 238 245 243 245
345 343 341 336 335 337 330 343 12 311 278 294 257 252 258 233 238 265 233 225 222 212 194 202 247 186 184 188 198 214 216 182 163 186 115 3 279 237 257 214 241 244 250 250 249
342 342 342 333 337 330 349 325 310 321 294 276 244 277 231 221 248 279 242 194 191 227 216 224 226 189 197 201 186 212 202 196 192 114 192 148 276 264 237 266 249 257 251 240 243
341 341 342 336 331 338 339 304 295 173 307 256 246 100 149 181 311 332 223 181 213 210 193 216 206 215 202 201 187 207 166 195 177 173 95 197 43 271 202 267 270 258 248 237 232
341 342 338 354 351 340 332 314 275 220 248 290 290 354 357 317 296 250 142 168 245 238 228 217 191 201 205 196 193 160 154 160 139 120 218 197 163 262 198 203 189 140 145 149 157
343 344 330 348 350 331 312 344 239 226 330 272 339 341 322 305 292 264 140 41 104 230 215 227 213 196 181 193 192 172 155 127 140 169 215 176 162 221 234 220 192 179 156 157 156
343 344 339 346 343 315 298 113 242 279 254 312 335 314 303 281 269 325 267 234 195 232 201 217 205 208 200 193 174 198 175 153 163 176 169 133 211 249 233 132 154 140 139 141 145
343 352 4 357 353 336 215 181 252 341 314 329 315 293 269 271 352 324 248 226 204 182 178 204 250 181 209 186 175 182 190 171 103 45 107 194 250 308 58 85 114 134 140 133 138
347 342 13 0 344 343 279 295 304 300 303 291 256 251 279 278 295 326 275 254 224 174 185 152 292 237 208 203 195 167 182 166 38 153 177 232 174 210 141 135 145 150 143 124 130
352 337 6 353 339 335 324 294 303 311 303 266 276 267 250 289 250 264 272 292 265 152 120 175 191 286 239 194 177 169 173 165 116 133 147 133 248 334 227 169 156 154 139 130 133
350 320 356 357 49 326 339 312 313 296 321 302 270 294 267 282 287 260 258 254 278 154 170 200 197 214 240 195 198 198 176 135 184 204 137 131 256 355 54 120 130 131 126 128 134
333 284 3 2 22 339 310 314 302 306 319 313 300 337 333 287 304 263 287 288 301 236 191 177 135 225 190 90 164 191 179 176 118 107 189 127 247 85 100 111 130 128 128 131 137
342 327 337 340 345 322 322 320 325 321 314 325 286 301 327 315 229 285 302 318 331 306 166 159 161 182 279 0 112 180 167 198 150 110 151 188 159 165 153 141 140 136 131 129 132
356 320 321 314 328 314 306 286 323 331 332 310 273 328 324 302 297 254 325 321 302 271 169 165 222 212 254 291 160 168 170 150 186 185 155 172 166 189 180 165 150 137 129 129 135
350 322 298 301 294 310 307 314 318 326 320 307 303 309 311 281 284 290 286 268 284 358 216 214 288 334 306 242 165 173 188 172 143 152 111 161 150 122 135 139 141 143 136 136 136
326 321 293 296 304 311 308 315 312 319 299 289 297 302 295 289 279 279 273 275 274 286 292 308 341 317 210 187 133 142 180 194 147 136 128 155 194 142 147 151 149 144 141 141 146
Wind_Speed_850mb
43 44 44 44 43 43 44 43 42 42 42 41 40 42 47 50 51 53 66 49 54 35 41 27 26 30 37 21 20 17 5 9 15 16 14 4 4 6 2 14 35 12 24 23 29
49 47 46 46 47 48 47 46 47 46 46 43 44 45 47 47 53 68 50 26 18 33 53 56 27 33 23 19 19 11 9 23 15 12 12 9 2 5 9 23 17 26 7 17 43
52 52 52 51 50 49 47 46 46 47 47 46 44 41 40 39 54 10 8 6 9 18 48 54 40 38 16 19 23 15 12 12 14 31 35 9 14 12 1 12 16 16 10 30 43
51 55 57 59 59 59 56 54 52 52 49 48 50 40 34 31 15 9 15 16 6 17 43 47 56 28 14 15 22 8 18 15 21 27 14 9 10 6 23 36 26 34 23 14 30
55 56 57 58 60 60 60 62 62 61 56 51 50 44 32 22 59 47 33 40 33 18 41 60 60 44 18 15 16 9 8 27 52 34 40 35 18 20 22 48 47 47 41 27 38
60 62 63 63 63 63 61 60 60 63 63 60 56 36 31 34 46 7 18 31 50 56 37 58 41 52 23 13 16 13 38 40 26 30 27 16 29 23 9 35 45 42 40 26 31
61 63 64 65 67 69 70 69 65 66 66 60 55 41 46 92 54 43 43 30 27 38 48 47 46 50 25 4 54 24 6 10 16 31 17 11 41 29 52 54 56 50 45 43 39
63 65 66 68 69 72 73 72 68 71 69 65 60 33 41 52 50 77 62 77 47 42 51 43 63 42 19 11 1 10 10 25 14 21 17 33 35 5 42 45 47 47 46 43 41
68 69 71 72 71 75 81 78 73 71 63 44 28 30 30 30 36 21 29 56 55 75 54 41 39 27 15 9 5 10 9 10 4 21 14 24 5 18 47 31 37 44 46 46 47
68 71 74 76 76 76 85 79 32 25 14 6 7 14 29 32 29 17 11 16 8 30 46 39 25 12 16 20 32 16 10 8 13 18 25 19 16 15 16 27 43 51 49 54 53
75 78 80 83 86 90 74 66 25 8 6 15 20 38 44 52 34 30 16 8 22 23 24 28 23 45 54 47 19 17 14 25 12 14 13 30 24 15 26 19 28 39 48 54 60
81 84 86 85 89 74 53 56 32 21 36 40 60 93 104 76 51 61 25 27 24 21 30 15 54 53 25 34 36 31 10 13 6 8 11 9 17 16 17 13 31 48 57 61 58
82 85 87 91 92 40 67 25 5 26 14 35 45 43 46 30 39 68 55 51 18 20 47 50 17 36 35 36 41 42 40 10 9 5 3 2 13 10 13 12 30 45 50 56 58
81 85 89 96 59 61 40 15 27 23 9 16 10 11 12 21 14 41 28 42 17 32 30 40 54 39 41 47 38 40 33 19 9 6 7 10 11 11 12 16 12 36 49 59 57
81 82 89 70 49 41 34 27 21 5 11 7 8 9 5 13 29 7 13 43 27 48 23 25 38 33 45 40 39 17 35 35 12 8 4 6 2 14 7 11 17 12 17 36 36
81 80 66 37 39 41 28 19 5 4 16 10 5 11 10 19 21 10 11 14 24 29 35 46 26 43 34 39 38 18 25 15 8 9 6 17 15 10 11 13 6 5 16 18 28
80 77 24 39 52 38 13 7 3 8 12 9 13 14 27 26 14 8 5 3 1 10 32 35 48 30 29 23 33 23 23 7 6 7 13 21 13 14 12 11 14 18 30 31 33
81 65 15 40 46 24 7 2 11 9 12 24 18 34 21 11 9 6 6 8 18 15 11 26 31 42 29 25 19 43 23 11 12 13 9 9 12 11 33 7 7 29 27 34 37
82 46 33 40 32 16 7 5 8 7 16 22 28 23 6 3 11 7 10 14 18 22 14 14 18 19 40 11 42 25 22 18 13 4 9 10 6 5 10 16 18 32 38 33 43
83 46 33 51 37 12 5 11 7 15 25 20 7 10 9 6 8 9 6 10 9 16 7 10 9 19 40 25 36 36 34 14 4 13 11 6 13 9 9 15 24 28 35 41 50
53 27 30 57 26 8 6 9 28 37 45 9 10 18 15 11 14 6 10 25 12 10 11 8 4 7 24 32 30 16 29 9 10 9 10 9 10 5 5 16 32 29 37 51 63
30 10 35 53 11 12 10 29 42 29 32 22 17 10 9 5 11 7 10 10 12 10 12 13 6 9 22 10 34 27 34 11 22 11 4 8 8 6 4 10 21 37 47 55 69
44 14 24 33 9 12 14 31 29 12 30 12 13 9 14 8 9 9 8 15 33 17 8 12 2 4 9 8 6 34 33 17 13 9 13 10 8 4 9 17 33 47 57 62 69
21 9 16 17 30 11 26 19 25 35 26 29 11 18 13 8 8 12 15 12 38 9 12 11 8 10 13 4 13 35 18 38 14 8 12 14 14 13 16 26 34 53 59 61 63
16 7 7 10 20 28 24 15 36 23 12 23 7 17 27 11 14 8 6 19 17 12 4 3 5 14 19 14 29 31 36 24 33 21 10 17 22 33 34 36 40 64 67 69 67
15 15 12 29 26 25 18 10 30 38 20 21 18 44 40 20 18 37 28 9 10 17 7 1 5 5 5 11 36 25 26 19 13 16 9 25 6 15 24 35 48 58 68 64 65
26 25 20 19 12 18 12 30 44 40 26 35 40 41 33 31 27 38 47 31 30 18 7 7 2 4 5 15 29 18 28 26 10 9 18 14 14 24 29 30 45 56 61 64 73
Wind_Direction_850mb
350 346 342 337 333 331 330 328 327 323 318 316 314 311 310 308 308 298 286 297 278 257 234 227 228 212 187 191 198 180 122 196 200 164 236 245 201 199 315 296 327 317 262 254 216
348 345 342 340 338 335 331 327 325 322 319 316 313 311 309 310 310 297 295 259 268 227 216 209 197 174 181 194 193 174 179 203 203 202 219 206 212 319 340 331 321 28 58 197 185
344 342 338 336 334 331 328 326 322 321 319 317 312 310 313 317 316 274 175 178 263 230 209 214 206 191 195 193 187 203 207 178 223 223 241 219 263 236 101 303 256 4 30 165 169
341 337 335 333 331 329 327 323 320 317 312 310 313 311 312 306 288 234 224 226 258 215 193 193 202 187 196 199 205 206 211 182 225 217 222 195 245 179 211 241 261 305 321 237 193
340 337 334 331 328 325 323 321 319 315 312 311 308 306 308 269 254 267 244 243 239 225 203 196 186 192 178 186 201 218 210 223 231 232 243 255 241 246 238 264 274 283 290 257 213
339 337 335 332 328 324 320 316 312 308 306 306 305 300 277 262 293 255 231 242 237 235 208 197 207 199 199 192 175 211 199 225 230 231 231 239 260 227 238 259 272 273 280 242 209
343 340 337 334 331 328 324 319 314 308 302 296 293 285 259 249 266 268 274 230 217 212 213 222 203 188 198 202 235 228 272 264 218 237 248 269 272 240 246 251 261 267 265 269 226
345 342 339 335 332 329 323 318 314 308 298 291 285 257 252 271 276 267 252 244 220 211 215 213 208 206 187 213 250 183 180 237 184 179 233 173 244 329 226 226 241 253 256 258 230
344 341 338 334 332 330 324 318 316 302 295 286 247 220 265 275 266 291 259 243 247 230 223 209 206 209 187 125 357 236 202 193 184 190 171 187 76 235 239 239 239 250 251 246 244
342 340 339 339 338 336 327 328 338 309 4 103 157 207 257 253 265 305 290 242 205 211 209 203 197 188 200 179 213 191 185 194 179 213 197 218 223 315 268 234 240 241 242 246 244
346 343 341 340 338 339 334 356 358 305 296 254 235 233 258 273 271 259 249 222 208 179 196 182 192 210 200 206 209 183 177 199 198 208 157 228 251 211 254 214 236 247 243 246 251
347 345 343 340 337 338 335 341 331 296 297 264 264 260 260 261 278 260 202 222 178 190 181 186 220 208 186 200 212 228 209 212 249 180 161 240 254 227 244 209 221 238 245 243 245
345 343 341 336 335 337 330 343 12 311 278 294 257 252 258 233 238 265 233 225 222 212 194 202 247 186 184 188 198 214 216 182 163 186 115 3 279 237 257 214 241 244 250 250 249
342 342 342 333 337 330 349 325 310 321 294 276 244 277 231 221 248 279 242 194 191 227 216 224 226 189 197 201 186 212 202 196 192 114 192 148 276 264 237 266 249 257 251 240 243
341 341 342 336 331 338 339 304 295 173 307 256 246 100 149 181 311 332 223 181 213 210 193 216 206 215 202 201 187 207 166 195 177 173 95 197 43 271 202 267 270 258 248 237 232
341 342 338 354 351 340 332 314 275 220 248 290 290 354 357 317 296 250 142 168 245 238 228 217 191 201 205 196 193 160 154 160 139 120 218 197 163 262 198 203 189 140 145 149 157
343 344 330 348 350 331 312 344 239 226 330 272 339 341 322 305 292 264 140 41 104 230 215 227 213 196 181 193 192 172 155 127 140 169 215 176 162 221 234 220 192 179 156 157 156
343 344 339 346 343 315 298 113 242 279 254 312 335 314 303 281 269 325 267 234 195 232 201 217 205 208 200 193 174 198 175 153 163 176 169 133 211 249 233 132 154 140 139 141 145
343 352 4 357 353 336 215 181 252 341 314 329 315 293 269 271 352 324 248 226 204 182 178 204 250 181 209 186 175 182 190 171 103 45 107 194 250 308 58 85 114 134 140 133 138
347 342 13 0 344 343 279 295 304 300 303 291 256 251 279 278 295 326 275 254 224 174 185 152 292 237 208 203 195 167 182 166 38 153 177 232 174 210 141 135 145 150 143 124 130
352 337 6 353 339 335 324 294 303 311 303 266 276 267 250 289 250 264 272 292 265 152 120 175 191 286 239 194 177 169 173 165 116 133 147 133 248 334 227 169 156 154 139 130 133
350 320 356 357 49 326 339 312 313 296 321 302 270 294 267 282 287 260 258 254 278 154 170 200 197 214 240 195 198 198 176 135 184 204 137 131 256 355 54 120 130 131 126 128 134
333 284 3 2 22 339 310 314 302 306 319 313 300 337 333 287 304 263 287 288 301 236 191 177 135 225 190 90 164 191 179 176 118 107 189 127 247 85 100 111 130 128 128 131 137
342 327 337 340 345 322 322 320 325 321 314 325 286 301 327 315 229 285 302 318 331 306 166 159 161 182 279 0 112 180 167 198 150 110 151 188 159 165 153 141 140 136 131 129 132
356 320 321 314 328 314 306 286 323 331 332 310 273 328 324 302 297 254 325 321 302 271 169 165 222 212 254 291 160 168 170 150 186 185 155 172 166 189 180 165 150 137 129 129 135
350 322 298 301 294 310 307 314 318 326 320 307 303 309 311 281 284 290 286 268 284 358 216 214 288 334 306 242 165 173 188 172 143 152 111 161 150 122 135 139 141 143 136 136 136
326 321 293 296 304 311 308 315 312 319 299 289 297 302 295 289 279 279 273 275 274 286 292 308 341 317 210 187 133 142 180 194 147 136 128 155 194 142 147 151 149 144 141 141 146